European Causeway — C6RG7 — position and weather

sailwx.info

Track history (hours):
 
Tides and Currents Weather Stations Pressure Air Temp Water Temp Dewpoint Dewpoint Depression Visibility Wind Speed Wind Dir Waves Ship Positions

European Causeway

Operator: P & O Irish Sea

Last reported at 2014-Nov-23 01:33 UTC. Time now 2014-Nov-23 02:06 UTC.
Position N 54°51' W 005°48'.

Length 165 m; draft 5.5 m.

Type: Passenger vessel. MMSI: 311027000.

Date/timePositionNaut miles runAvg speedWind from/ knotsBaromVisibWave heightAir tempDewpointWater temp
2014-Nov-23 01:33N 54°51' W 005°48'0 0.0
2014-Nov-23 00:33N 54°51' W 005°48'0 0.0
2014-Nov-22 23:33N 54°51' W 005°48'0 0.0
2014-Nov-22 22:33N 54°51' W 005°48'0 0.0
2014-Nov-22 21:33N 54°51' W 005°48'0 0.0
2014-Nov-22 20:33N 54°51' W 005°48'0 0.0
2014-Nov-22 19:33N 54°51' W 005°48'0 0.0
2014-Nov-22 18:33N 54°51' W 005°48'1313.3
2014-Nov-22 17:33N 54°57' W 005°28'1514.8
2014-Nov-22 16:34N 54°58' W 005°02'1 0.9
2014-Nov-22 15:33N 54°58' W 005°01'1111.3
2014-Nov-22 14:34N 54°58' W 005°21'1717.4
2014-Nov-22 13:33N 54°51' W 005°48'0 0.1
2014-Nov-22 12:33N 54°51' W 005°48'1313.2
2014-Nov-22 11:34N 54°57' W 005°28'1514.8
2014-Nov-22 10:34N 54°59' W 005°02'1 1.0
2014-Nov-22 09:33N 54°58' W 005°01'1111.2
2014-Nov-22 08:33N 54°58' W 005°21'1717.2
2014-Nov-22 07:33N 54°51' W 005°48'0 0.0
2014-Nov-22 06:27N 54°51' W 005°48'1617.2
2014-Nov-22 05:33N 54°58' W 005°24'1311.1
2014-Nov-22 04:21N 54°58' W 005°01'0 0.0
2014-Nov-22 03:33N 54°58' W 005°01'0 0.0
2014-Nov-22 02:33N 54°58' W 005°01'5 5.0
2014-Nov-22 01:31N 55°02' W 005°07'1919.6
2014-Nov-22 00:33N 54°54' W 005°37'7 7.1
2014-Nov-21 23:33N 54°51' W 005°48'0 0.0
2014-Nov-21 22:33N 54°51' W 005°48'5 5.4
2014-Nov-21 21:33N 54°54' W 005°40'1818.1
2014-Nov-21 20:33N 55°01' W 005°11'7 6.9
2014-Nov-21 19:33N 54°58' W 005°01'0 0.1
2014-Nov-21 18:33N 54°58' W 005°01'1312.5
2014-Nov-21 17:33N 54°57' W 005°23'1615.8
2014-Nov-21 16:33N 54°51' W 005°48'0 0.0
2014-Nov-21 15:33N 54°51' W 005°48'1514.7
2014-Nov-21 14:33N 54°58' W 005°26'1413.4
2014-Nov-21 13:30N 54°58' W 005°01'0 0.0
2014-Nov-21 12:34N 54°58' W 005°01'1212.3
2014-Nov-21 11:34N 54°58' W 005°22'1616.1
2014-Nov-21 10:33N 54°51' W 005°48'0 0.0
2014-Nov-21 09:33N 54°51' W 005°48'1717.4
2014-Nov-21 08:34N 55°00' W 005°22'1311.8
2014-Nov-21 07:30N 54°58' W 005°01'0 0.0
2014-Nov-21 06:33N 54°58' W 005°01'6 5.5
2014-Nov-21 05:33N 55°02' W 005°08'1818.3
2014-Nov-21 04:33N 54°54' W 005°37'7 7.0
2014-Nov-21 03:33N 54°51' W 005°48'0 0.0
2014-Nov-21 02:33N 54°51' W 005°48'5 4.9
2014-Nov-21 01:34N 54°54' W 005°41'1818.2
2014-Nov-21 00:34N 55°01' W 005°12'7 7.3
2014-Nov-20 23:33N 54°58' W 005°01'0 0.0
2014-Nov-20 22:33N 54°58' W 005°01'7 6.1
2014-Nov-20 21:26N 55°01' W 005°11'1617.8
2014-Nov-20 20:34N 54°54' W 005°36'8 7.7
2014-Nov-20 19:33N 54°51' W 005°48'0 0.0
2014-Nov-20 18:33N 54°51' W 005°48'1515.6
2014-Nov-20 17:33N 54°58' W 005°24'1312.8
2014-Nov-20 16:30N 54°58' W 005°01'0 0.1
2014-Nov-20 15:33N 54°58' W 005°01'1211.6
2014-Nov-20 14:33N 54°58' W 005°21'1716.7
2014-Nov-20 13:34N 54°51' W 005°48'0 0.1
2014-Nov-20 12:32N 54°51' W 005°48'1313.6
2014-Nov-20 11:33N 54°57' W 005°28'1515.1
2014-Nov-20 10:33N 54°58' W 005°02'0 0.5
2014-Nov-20 09:33N 54°58' W 005°01'1312.8
2014-Nov-20 08:33N 54°57' W 005°23'1514.8
2014-Nov-20 07:30N 54°51' W 005°48'0 0.0
2014-Nov-20 06:33N 54°51' W 005°48'1010.0
2014-Nov-20 05:33N 54°56' W 005°33'1817.6
2014-Nov-20 04:33N 54°59' W 005°03'2 1.7
2014-Nov-20 03:33N 54°58' W 005°01'0 0.0
2014-Nov-20 02:33N 54°58' W 005°01'6 5.6
2014-Nov-20 01:33N 55°01' W 005°08'1818.2
2014-Nov-20 00:34N 54°54' W 005°37'7 6.3
2014-Nov-19 23:27N 54°51' W 005°48'0 0.0
2014-Nov-19 22:33N 54°51' W 005°48'10 9.8
2014-Nov-19 21:32N 54°56' W 005°33'1818.0
2014-Nov-19 20:33N 54°59' W 005°03'2 1.8
2014-Nov-19 19:30N 54°58' W 005°01'0 0.0
2014-Nov-19 18:33N 54°58' W 005°01'1212.0
2014-Nov-19 17:34N 54°58' W 005°22'1616.3
2014-Nov-19 16:34N 54°51' W 005°48'0 0.1
2014-Nov-19 15:33N 54°51' W 005°48'1313.5
2014-Nov-19 14:34N 54°57' W 005°27'1514.9
2014-Nov-19 13:33N 54°58' W 005°01'0 0.3
2014-Nov-19 12:34N 54°58' W 005°01'1111.4
2014-Nov-19 11:33N 54°58' W 005°21'1717.2
2014-Nov-19 10:34N 54°51' W 005°48'0 0.0
2014-Nov-19 09:34N 54°51' W 005°48'1313.4
2014-Nov-19 08:34N 54°57' W 005°27'1514.8
2014-Nov-19 07:33N 54°58' W 005°01'0 0.4
2014-Nov-19 06:33N 54°58' W 005°01'6 5.5
2014-Nov-19 05:33N 55°01' W 005°08'1717.2
2014-Nov-19 04:33N 54°54' W 005°35'8 8.0
2014-Nov-19 03:33N 54°51' W 005°48'0 0.0
2014-Nov-19 02:33N 54°51' W 005°48'4 3.5
2014-Nov-19 01:33N 54°53' W 005°43'1818.5
2014-Nov-19 00:33N 55°01' W 005°14'8 8.1
2014-Nov-18 23:33N 54°58' W 005°01'0 0.0
2014-Nov-18 22:34N 54°58' W 005°01'5 4.7
2014-Nov-18 21:31N 55°02' W 005°06'2019.2
2014-Nov-18 20:28N 54°54' W 005°39'6 6.6
2014-Nov-18 19:33N 54°51' W 005°48'0 0.0
2014-Nov-18 18:34N 54°51' W 005°48'1515.4
2014-Nov-18 17:34N 54°58' W 005°24'1312.8
2014-Nov-18 16:31N 54°58' W 005°01'0 0.0
2014-Nov-18 15:33N 54°58' W 005°01'1111.5
2014-Nov-18 14:33N 54°58' W 005°21'1717.0
2014-Nov-18 13:33N 54°51' W 005°48'0 0.0
2014-Nov-18 12:33N 54°51' W 005°48'1514.7
2014-Nov-18 11:34N 54°58' W 005°25'1414.1
2014-Nov-18 10:34N 54°58' W 005°01'0 0.0
2014-Nov-18 09:33N 54°58' W 005°01'1212.2
2014-Nov-18 08:33N 54°58' W 005°22'1616.1
2014-Nov-18 07:33N 54°51' W 005°48'0 0.1
2014-Nov-18 06:33N 54°51' W 005°48'3 3.5
2014-Nov-18 05:33N 54°53' W 005°43'2220.5
2014-Nov-18 04:30N 55°01' W 005°08'6 6.1
2014-Nov-18 03:34N 54°58' W 005°01'0 0.0
2014-Nov-18 02:33N 54°58' W 005°01'5 5.2
2014-Nov-18 01:30N 55°02' W 005°07'1919.7
2014-Nov-18 00:33N 54°54' W 005°36'8 7.6
2014-Nov-17 23:33N 54°51' W 005°48'0 0.0
2014-Nov-17 22:33N 54°51' W 005°48'10 7.8
2014-Nov-17 21:18N 54°56' W 005°33'1418.3
2014-Nov-17 20:33N 55°02' W 005°12'8 7.5
2014-Nov-17 19:30N 54°58' W 005°01'0 0.1
2014-Nov-17 18:34N 54°58' W 005°01'1313.2
2014-Nov-17 17:33N 54°57' W 005°24'1514.9
2014-Nov-17 16:33N 54°51' W 005°48'0 0.0
2014-Nov-17 15:32N 54°51' W 005°48'1414.0
2014-Nov-17 14:33N 54°57' W 005°27'1514.4
2014-Nov-17 13:31N 54°58' W 005°01'0 0.0
2014-Nov-17 12:33N 54°58' W 005°01'1212.3
2014-Nov-17 11:33N 54°57' W 005°22'1616.0
2014-Nov-17 10:34N 54°51' W 005°48'0 0.0
2014-Nov-17 09:33N 54°51' W 005°48'1414.2
2014-Nov-17 08:33N 54°58' W 005°26'1413.6
2014-Nov-17 07:30N 54°58' W 005°01'0 0.0
2014-Nov-17 06:33N 54°58' W 005°01'6 6.1
2014-Nov-17 05:32N 55°01' W 005°10'1616.8
2014-Nov-17 04:33N 54°54' W 005°36'8 7.8
2014-Nov-17 03:34N 54°51' W 005°48'0 0.0
2014-Nov-17 02:33N 54°51' W 005°48'0 0.0
2014-Nov-17 01:33N 54°51' W 005°48'3 3.2
2014-Nov-17 00:33N 54°53' W 005°44'1818.5
2014-Nov-16 23:34N 55°01' W 005°15'8 8.3
2014-Nov-16 22:33N 54°58' W 005°01'8 6.7
2014-Nov-16 21:23N 55°00' W 005°14'1517.7
2014-Nov-16 20:33N 54°54' W 005°37'7 6.5
2014-Nov-16 19:30N 54°51' W 005°48'0 0.0
2014-Nov-16 18:33N 54°51' W 005°48'1212.1
2014-Nov-16 17:33N 54°57' W 005°29'1615.7
2014-Nov-16 16:34N 54°59' W 005°02'1 1.3
2014-Nov-16 15:33N 54°58' W 005°01'6 6.0
2014-Nov-16 14:33N 55°01' W 005°09'1818.5
2014-Nov-16 13:33N 54°53' W 005°38'6 6.2
2014-Nov-16 12:33N 54°51' W 005°48'0 0.0
2014-Nov-16 11:33N 54°51' W 005°48'0 0.0
2014-Nov-16 10:33N 54°51' W 005°48'0 0.1
2014-Nov-16 09:33N 54°51' W 005°48'1918.9
2014-Nov-16 08:33N 54°60' W 005°19'10 9.8
2014-Nov-16 07:30N 54°58' W 005°01'0 0.0
2014-Nov-16 06:33N 54°58' W 005°01'0 0.0
2014-Nov-16 05:33N 54°58' W 005°01'0 0.0
2014-Nov-16 04:33N 54°58' W 005°01'0 0.0
2014-Nov-16 03:33N 54°58' W 005°01'0 0.0
2014-Nov-16 02:33N 54°58' W 005°01'0 0.0
2014-Nov-16 01:33N 54°58' W 005°01'0 0.0
2014-Nov-16 00:33N 54°58' W 005°01'0 0.0
2014-Nov-15 23:33N 54°58' W 005°01'0 0.0
2014-Nov-15 22:33N 54°58' W 005°01'5 5.1
2014-Nov-15 21:30N 55°02' W 005°07'1717.9
2014-Nov-15 20:33N 54°54' W 005°34'9 8.9
2014-Nov-15 19:33N 54°51' W 005°48'0 0.0
2014-Nov-15 18:33N 54°51' W 005°48'1414.0
2014-Nov-15 17:33N 54°58' W 005°26'1514.5
2014-Nov-15 16:33N 54°58' W 005°01'0 0.0
2014-Nov-15 15:34N 54°58' W 005°01'1211.5
2014-Nov-15 14:33N 54°58' W 005°21'1716.6
2014-Nov-15 13:33N 54°51' W 005°48'0 0.1
2014-Nov-15 12:33N 54°51' W 005°48'1413.9
2014-Nov-15 11:33N 54°57' W 005°27'1414.5
2014-Nov-15 10:34N 54°58' W 005°02'0 0.4
2014-Nov-15 09:33N 54°58' W 005°01'1110.8
2014-Nov-15 08:33N 54°58' W 005°20'1717.2
2014-Nov-15 07:33N 54°52' W 005°48'1 0.8
2014-Nov-15 06:34N 54°51' W 005°48'3 2.7
2014-Nov-15 05:34N 54°53' W 005°44'2020.0
2014-Nov-15 04:33N 55°01' W 005°13'7 7.5
2014-Nov-15 03:33N 54°58' W 005°01'0 0.0
2014-Nov-15 02:33N 54°58' W 005°01'6 5.8
2014-Nov-15 01:31N 55°01' W 005°09'1718.3
2014-Nov-15 00:33N 54°54' W 005°37'7 7.3
2014-Nov-14 23:34N 54°51' W 005°48'0 0.0
2014-Nov-14 22:33N 54°51' W 005°48'3 2.9
2014-Nov-14 21:33N 54°53' W 005°44'2020.1
2014-Nov-14 20:33N 55°01' W 005°12'7 6.9
2014-Nov-14 19:30N 54°58' W 005°01'0 0.0
2014-Nov-14 18:33N 54°58' W 005°01'1212.4
2014-Nov-14 17:33N 54°58' W 005°23'1616.0
2014-Nov-14 16:33N 54°51' W 005°48'0 0.1
2014-Nov-14 15:33N 54°51' W 005°48'1616.2
2014-Nov-14 14:33N 54°59' W 005°23'13 6.3
2014-Nov-14 12:33N 54°58' W 005°01'1211.7
2014-Nov-14 11:33N 54°58' W 005°21'1716.9
2014-Nov-14 10:33N 54°51' W 005°48'0 0.2
2014-Nov-14 09:33N 54°51' W 005°48'1818.3
2014-Nov-14 08:34N 54°60' W 005°20'1110.5
2014-Nov-14 07:31N 54°58' W 005°01'0 0.0
2014-Nov-14 06:33N 54°58' W 005°01'6 5.4
2014-Nov-14 05:31N 55°02' W 005°08'1919.4
2014-Nov-14 04:33N 54°54' W 005°38'6 6.6
2014-Nov-14 03:33N 54°51' W 005°48'0 0.0
2014-Nov-14 02:33N 54°51' W 005°48'4 4.3
2014-Nov-14 01:34N 54°53' W 005°42'1817.9
2014-Nov-14 00:34N 55°01' W 005°14'8 7.9
2014-Nov-13 23:33N 54°58' W 005°01'0 0.0
2014-Nov-13 22:33N 54°58' W 005°01'6 5.5
2014-Nov-13 21:29N 55°01' W 005°09'1920.2
2014-Nov-13 20:33N 54°54' W 005°38'6 6.0
2014-Nov-13 19:33N 54°51' W 005°48'0 0.0
2014-Nov-13 18:33N 54°51' W 005°48'1717.1
2014-Nov-13 17:33N 54°59' W 005°21'1211.3
2014-Nov-13 16:31N 54°58' W 005°01'0 0.1
2014-Nov-13 15:33N 54°58' W 005°01'1313.1
2014-Nov-13 14:33N 54°57' W 005°24'1514.6
2014-Nov-13 13:32N 54°51' W 005°48'0 0.1
2014-Nov-13 12:33N 54°51' W 005°48'1615.7
2014-Nov-13 11:33N 54°58' W 005°24'1313.0
2014-Nov-13 10:33N 54°58' W 005°01'0 0.1
2014-Nov-13 09:33N 54°58' W 005°01'1312.6
2014-Nov-13 08:34N 54°57' W 005°23'1615.6
2014-Nov-13 07:34N 54°51' W 005°48'0 0.0
2014-Nov-13 06:33N 54°51' W 005°48'10 9.5
2014-Nov-13 05:33N 54°56' W 005°34'1816.7
2014-Nov-13 04:28N 54°59' W 005°03'2 2.0
2014-Nov-13 03:34N 54°58' W 005°01'0 0.0
2014-Nov-13 02:34N 54°58' W 005°01'6 5.8
2014-Nov-13 01:34N 55°02' W 005°09'  
Track history (hours):
 
Tides and Currents Weather Stations Pressure Air Temp Water Temp Dewpoint Dewpoint Depression Visibility Wind Speed Wind Dir Waves Ship Positions

European Causeway

Operator: P & O Irish Sea

Last reported at 2014-Nov-23 01:33 UTC. Time now 2014-Nov-23 02:06 UTC.
Position N 54°51' W 005°48'.

Length 165 m; draft 5.5 m.

Type: Passenger vessel. MMSI: 311027000.

Date/timePositionNaut miles runAvg speedWind from/ knotsBaromVisibWave heightAir tempDewpointWater temp
2014-Nov-23 01:33N 54°51' W 005°48'0 0.0
2014-Nov-23 00:33N 54°51' W 005°48'0 0.0
2014-Nov-22 23:33N 54°51' W 005°48'0 0.0
2014-Nov-22 22:33N 54°51' W 005°48'0 0.0
2014-Nov-22 21:33N 54°51' W 005°48'0 0.0
2014-Nov-22 20:33N 54°51' W 005°48'0 0.0
2014-Nov-22 19:33N 54°51' W 005°48'0 0.0
2014-Nov-22 18:33N 54°51' W 005°48'1313.3
2014-Nov-22 17:33N 54°57' W 005°28'1514.8
2014-Nov-22 16:34N 54°58' W 005°02'1 0.9
2014-Nov-22 15:33N 54°58' W 005°01'1111.3
2014-Nov-22 14:34N 54°58' W 005°21'1717.4
2014-Nov-22 13:33N 54°51' W 005°48'0 0.1
2014-Nov-22 12:33N 54°51' W 005°48'1313.2
2014-Nov-22 11:34N 54°57' W 005°28'1514.8
2014-Nov-22 10:34N 54°59' W 005°02'1 1.0
2014-Nov-22 09:33N 54°58' W 005°01'1111.2
2014-Nov-22 08:33N 54°58' W 005°21'1717.2
2014-Nov-22 07:33N 54°51' W 005°48'0 0.0
2014-Nov-22 06:27N 54°51' W 005°48'1617.2
2014-Nov-22 05:33N 54°58' W 005°24'1311.1
2014-Nov-22 04:21N 54°58' W 005°01'0 0.0
2014-Nov-22 03:33N 54°58' W 005°01'0 0.0
2014-Nov-22 02:33N 54°58' W 005°01'5 5.0
2014-Nov-22 01:31N 55°02' W 005°07'1919.6
2014-Nov-22 00:33N 54°54' W 005°37'7 7.1
2014-Nov-21 23:33N 54°51' W 005°48'0 0.0
2014-Nov-21 22:33N 54°51' W 005°48'5 5.4
2014-Nov-21 21:33N 54°54' W 005°40'1818.1
2014-Nov-21 20:33N 55°01' W 005°11'7 6.9
2014-Nov-21 19:33N 54°58' W 005°01'0 0.1
2014-Nov-21 18:33N 54°58' W 005°01'1312.5
2014-Nov-21 17:33N 54°57' W 005°23'1615.8
2014-Nov-21 16:33N 54°51' W 005°48'0 0.0
2014-Nov-21 15:33N 54°51' W 005°48'1514.7
2014-Nov-21 14:33N 54°58' W 005°26'1413.4
2014-Nov-21 13:30N 54°58' W 005°01'0 0.0
2014-Nov-21 12:34N 54°58' W 005°01'1212.3
2014-Nov-21 11:34N 54°58' W 005°22'1616.1
2014-Nov-21 10:33N 54°51' W 005°48'0 0.0
2014-Nov-21 09:33N 54°51' W 005°48'1717.4
2014-Nov-21 08:34N 55°00' W 005°22'1311.8
2014-Nov-21 07:30N 54°58' W 005°01'0 0.0
2014-Nov-21 06:33N 54°58' W 005°01'6 5.5
2014-Nov-21 05:33N 55°02' W 005°08'1818.3
2014-Nov-21 04:33N 54°54' W 005°37'7 7.0
2014-Nov-21 03:33N 54°51' W 005°48'0 0.0
2014-Nov-21 02:33N 54°51' W 005°48'5 4.9
2014-Nov-21 01:34N 54°54' W 005°41'1818.2
2014-Nov-21 00:34N 55°01' W 005°12'7 7.3
2014-Nov-20 23:33N 54°58' W 005°01'0 0.0
2014-Nov-20 22:33N 54°58' W 005°01'7 6.1
2014-Nov-20 21:26N 55°01' W 005°11'1617.8
2014-Nov-20 20:34N 54°54' W 005°36'8 7.7
2014-Nov-20 19:33N 54°51' W 005°48'0 0.0
2014-Nov-20 18:33N 54°51' W 005°48'1515.6
2014-Nov-20 17:33N 54°58' W 005°24'1312.8
2014-Nov-20 16:30N 54°58' W 005°01'0 0.1
2014-Nov-20 15:33N 54°58' W 005°01'1211.6
2014-Nov-20 14:33N 54°58' W 005°21'1716.7
2014-Nov-20 13:34N 54°51' W 005°48'0 0.1
2014-Nov-20 12:32N 54°51' W 005°48'1313.6
2014-Nov-20 11:33N 54°57' W 005°28'1515.1
2014-Nov-20 10:33N 54°58' W 005°02'0 0.5
2014-Nov-20 09:33N 54°58' W 005°01'1312.8
2014-Nov-20 08:33N 54°57' W 005°23'1514.8
2014-Nov-20 07:30N 54°51' W 005°48'0 0.0
2014-Nov-20 06:33N 54°51' W 005°48'1010.0
2014-Nov-20 05:33N 54°56' W 005°33'1817.6
2014-Nov-20 04:33N 54°59' W 005°03'2 1.7
2014-Nov-20 03:33N 54°58' W 005°01'0 0.0
2014-Nov-20 02:33N 54°58' W 005°01'6 5.6
2014-Nov-20 01:33N 55°01' W 005°08'1818.2
2014-Nov-20 00:34N 54°54' W 005°37'7 6.3
2014-Nov-19 23:27N 54°51' W 005°48'0 0.0
2014-Nov-19 22:33N 54°51' W 005°48'10 9.8
2014-Nov-19 21:32N 54°56' W 005°33'1818.0
2014-Nov-19 20:33N 54°59' W 005°03'2 1.8
2014-Nov-19 19:30N 54°58' W 005°01'0 0.0
2014-Nov-19 18:33N 54°58' W 005°01'1212.0
2014-Nov-19 17:34N 54°58' W 005°22'1616.3
2014-Nov-19 16:34N 54°51' W 005°48'0 0.1
2014-Nov-19 15:33N 54°51' W 005°48'1313.5
2014-Nov-19 14:34N 54°57' W 005°27'1514.9
2014-Nov-19 13:33N 54°58' W 005°01'0 0.3
2014-Nov-19 12:34N 54°58' W 005°01'1111.4
2014-Nov-19 11:33N 54°58' W 005°21'1717.2
2014-Nov-19 10:34N 54°51' W 005°48'0 0.0
2014-Nov-19 09:34N 54°51' W 005°48'1313.4
2014-Nov-19 08:34N 54°57' W 005°27'1514.8
2014-Nov-19 07:33N 54°58' W 005°01'0 0.4
2014-Nov-19 06:33N 54°58' W 005°01'6 5.5
2014-Nov-19 05:33N 55°01' W 005°08'1717.2
2014-Nov-19 04:33N 54°54' W 005°35'8 8.0
2014-Nov-19 03:33N 54°51' W 005°48'0 0.0
2014-Nov-19 02:33N 54°51' W 005°48'4 3.5
2014-Nov-19 01:33N 54°53' W 005°43'1818.5
2014-Nov-19 00:33N 55°01' W 005°14'8 8.1
2014-Nov-18 23:33N 54°58' W 005°01'0 0.0
2014-Nov-18 22:34N 54°58' W 005°01'5 4.7
2014-Nov-18 21:31N 55°02' W 005°06'2019.2
2014-Nov-18 20:28N 54°54' W 005°39'6 6.6
2014-Nov-18 19:33N 54°51' W 005°48'0 0.0
2014-Nov-18 18:34N 54°51' W 005°48'1515.4
2014-Nov-18 17:34N 54°58' W 005°24'1312.8
2014-Nov-18 16:31N 54°58' W 005°01'0 0.0
2014-Nov-18 15:33N 54°58' W 005°01'1111.5
2014-Nov-18 14:33N 54°58' W 005°21'1717.0
2014-Nov-18 13:33N 54°51' W 005°48'0 0.0
2014-Nov-18 12:33N 54°51' W 005°48'1514.7
2014-Nov-18 11:34N 54°58' W 005°25'1414.1
2014-Nov-18 10:34N 54°58' W 005°01'0 0.0
2014-Nov-18 09:33N 54°58' W 005°01'1212.2
2014-Nov-18 08:33N 54°58' W 005°22'1616.1
2014-Nov-18 07:33N 54°51' W 005°48'0 0.1
2014-Nov-18 06:33N 54°51' W 005°48'3 3.5
2014-Nov-18 05:33N 54°53' W 005°43'2220.5
2014-Nov-18 04:30N 55°01' W 005°08'6 6.1
2014-Nov-18 03:34N 54°58' W 005°01'0 0.0
2014-Nov-18 02:33N 54°58' W 005°01'5 5.2
2014-Nov-18 01:30N 55°02' W 005°07'1919.7
2014-Nov-18 00:33N 54°54' W 005°36'8 7.6
2014-Nov-17 23:33N 54°51' W 005°48'0 0.0
2014-Nov-17 22:33N 54°51' W 005°48'10 7.8
2014-Nov-17 21:18N 54°56' W 005°33'1418.3
2014-Nov-17 20:33N 55°02' W 005°12'8 7.5
2014-Nov-17 19:30N 54°58' W 005°01'0 0.1
2014-Nov-17 18:34N 54°58' W 005°01'1313.2
2014-Nov-17 17:33N 54°57' W 005°24'1514.9
2014-Nov-17 16:33N 54°51' W 005°48'0 0.0
2014-Nov-17 15:32N 54°51' W 005°48'1414.0
2014-Nov-17 14:33N 54°57' W 005°27'1514.4
2014-Nov-17 13:31N 54°58' W 005°01'0 0.0
2014-Nov-17 12:33N 54°58' W 005°01'1212.3
2014-Nov-17 11:33N 54°57' W 005°22'1616.0
2014-Nov-17 10:34N 54°51' W 005°48'0 0.0
2014-Nov-17 09:33N 54°51' W 005°48'1414.2
2014-Nov-17 08:33N 54°58' W 005°26'1413.6
2014-Nov-17 07:30N 54°58' W 005°01'0 0.0
2014-Nov-17 06:33N 54°58' W 005°01'6 6.1
2014-Nov-17 05:32N 55°01' W 005°10'1616.8
2014-Nov-17 04:33N 54°54' W 005°36'8 7.8
2014-Nov-17 03:34N 54°51' W 005°48'0 0.0
2014-Nov-17 02:33N 54°51' W 005°48'0 0.0
2014-Nov-17 01:33N 54°51' W 005°48'3 3.2
2014-Nov-17 00:33N 54°53' W 005°44'1818.5
2014-Nov-16 23:34N 55°01' W 005°15'8 8.3
2014-Nov-16 22:33N 54°58' W 005°01'8 6.7
2014-Nov-16 21:23N 55°00' W 005°14'1517.7
2014-Nov-16 20:33N 54°54' W 005°37'7 6.5
2014-Nov-16 19:30N 54°51' W 005°48'0 0.0
2014-Nov-16 18:33N 54°51' W 005°48'1212.1
2014-Nov-16 17:33N 54°57' W 005°29'1615.7
2014-Nov-16 16:34N 54°59' W 005°02'1 1.3
2014-Nov-16 15:33N 54°58' W 005°01'6 6.0
2014-Nov-16 14:33N 55°01' W 005°09'1818.5
2014-Nov-16 13:33N 54°53' W 005°38'6 6.2
2014-Nov-16 12:33N 54°51' W 005°48'0 0.0
2014-Nov-16 11:33N 54°51' W 005°48'0 0.0
2014-Nov-16 10:33N 54°51' W 005°48'0 0.1
2014-Nov-16 09:33N 54°51' W 005°48'1918.9
2014-Nov-16 08:33N 54°60' W 005°19'10 9.8
2014-Nov-16 07:30N 54°58' W 005°01'0 0.0
2014-Nov-16 06:33N 54°58' W 005°01'0 0.0
2014-Nov-16 05:33N 54°58' W 005°01'0 0.0
2014-Nov-16 04:33N 54°58' W 005°01'0 0.0
2014-Nov-16 03:33N 54°58' W 005°01'0 0.0
2014-Nov-16 02:33N 54°58' W 005°01'0 0.0
2014-Nov-16 01:33N 54°58' W 005°01'0 0.0
2014-Nov-16 00:33N 54°58' W 005°01'0 0.0
2014-Nov-15 23:33N 54°58' W 005°01'0 0.0
2014-Nov-15 22:33N 54°58' W 005°01'5 5.1
2014-Nov-15 21:30N 55°02' W 005°07'1717.9
2014-Nov-15 20:33N 54°54' W 005°34'9 8.9
2014-Nov-15 19:33N 54°51' W 005°48'0 0.0
2014-Nov-15 18:33N 54°51' W 005°48'1414.0
2014-Nov-15 17:33N 54°58' W 005°26'1514.5
2014-Nov-15 16:33N 54°58' W 005°01'0 0.0
2014-Nov-15 15:34N 54°58' W 005°01'1211.5
2014-Nov-15 14:33N 54°58' W 005°21'1716.6
2014-Nov-15 13:33N 54°51' W 005°48'0 0.1
2014-Nov-15 12:33N 54°51' W 005°48'1413.9
2014-Nov-15 11:33N 54°57' W 005°27'1414.5
2014-Nov-15 10:34N 54°58' W 005°02'0 0.4
2014-Nov-15 09:33N 54°58' W 005°01'1110.8
2014-Nov-15 08:33N 54°58' W 005°20'1717.2
2014-Nov-15 07:33N 54°52' W 005°48'1 0.8
2014-Nov-15 06:34N 54°51' W 005°48'3 2.7
2014-Nov-15 05:34N 54°53' W 005°44'2020.0
2014-Nov-15 04:33N 55°01' W 005°13'7 7.5
2014-Nov-15 03:33N 54°58' W 005°01'0 0.0
2014-Nov-15 02:33N 54°58' W 005°01'6 5.8
2014-Nov-15 01:31N 55°01' W 005°09'1718.3
2014-Nov-15 00:33N 54°54' W 005°37'7 7.3
2014-Nov-14 23:34N 54°51' W 005°48'0 0.0
2014-Nov-14 22:33N 54°51' W 005°48'3 2.9
2014-Nov-14 21:33N 54°53' W 005°44'2020.1
2014-Nov-14 20:33N 55°01' W 005°12'7 6.9
2014-Nov-14 19:30N 54°58' W 005°01'0 0.0
2014-Nov-14 18:33N 54°58' W 005°01'1212.4
2014-Nov-14 17:33N 54°58' W 005°23'1616.0
2014-Nov-14 16:33N 54°51' W 005°48'0 0.1
2014-Nov-14 15:33N 54°51' W 005°48'1616.2
2014-Nov-14 14:33N 54°59' W 005°23'13 6.3
2014-Nov-14 12:33N 54°58' W 005°01'1211.7
2014-Nov-14 11:33N 54°58' W 005°21'1716.9
2014-Nov-14 10:33N 54°51' W 005°48'0 0.2
2014-Nov-14 09:33N 54°51' W 005°48'1818.3
2014-Nov-14 08:34N 54°60' W 005°20'1110.5
2014-Nov-14 07:31N 54°58' W 005°01'0 0.0
2014-Nov-14 06:33N 54°58' W 005°01'6 5.4
2014-Nov-14 05:31N 55°02' W 005°08'1919.4
2014-Nov-14 04:33N 54°54' W 005°38'6 6.6
2014-Nov-14 03:33N 54°51' W 005°48'0 0.0
2014-Nov-14 02:33N 54°51' W 005°48'4 4.3
2014-Nov-14 01:34N 54°53' W 005°42'1817.9
2014-Nov-14 00:34N 55°01' W 005°14'8 7.9
2014-Nov-13 23:33N 54°58' W 005°01'0 0.0
2014-Nov-13 22:33N 54°58' W 005°01'6 5.5
2014-Nov-13 21:29N 55°01' W 005°09'1920.2
2014-Nov-13 20:33N 54°54' W 005°38'6 6.0
2014-Nov-13 19:33N 54°51' W 005°48'0 0.0
2014-Nov-13 18:33N 54°51' W 005°48'1717.1
2014-Nov-13 17:33N 54°59' W 005°21'1211.3
2014-Nov-13 16:31N 54°58' W 005°01'0 0.1
2014-Nov-13 15:33N 54°58' W 005°01'1313.1
2014-Nov-13 14:33N 54°57' W 005°24'1514.6
2014-Nov-13 13:32N 54°51' W 005°48'0 0.1
2014-Nov-13 12:33N 54°51' W 005°48'1615.7
2014-Nov-13 11:33N 54°58' W 005°24'1313.0
2014-Nov-13 10:33N 54°58' W 005°01'0 0.1
2014-Nov-13 09:33N 54°58' W 005°01'1312.6
2014-Nov-13 08:34N 54°57' W 005°23'1615.6
2014-Nov-13 07:34N 54°51' W 005°48'0 0.0
2014-Nov-13 06:33N 54°51' W 005°48'10 9.5
2014-Nov-13 05:33N 54°56' W 005°34'1816.7
2014-Nov-13 04:28N 54°59' W 005°03'2 2.0
2014-Nov-13 03:34N 54°58' W 005°01'0 0.0
2014-Nov-13 02:34N 54°58' W 005°01'6 5.8
2014-Nov-13 01:34N 55°02' W 005°09'  

Dump ship's entire track history